Location: Newark
(11.2914°S, 14.4718°E)
Time: 00:05:27
(UTC+00:00)

Tiros 1 despin weight - Pass Details

Date: 19 September 2019
Orbit: 593 x 643 km, 48.2° (Epoch: 22 October)

Event Time Altitude Azimuth Distance (km) Brightness Sun altitude
Rises 22:24:12 0° 280° (W) 2,845 - -77.3°
Reaches altitude 10° 22:27:34 10° 254° (WSW) 1,958 - -77.8°
Maximum altitude 22:29:48 14° 224° (SW) 1,747 - -78.1°
Drops below altitude 10° 22:32:04 10° 194° (SSW) 1,980 - -78.4°
Sets 22:35:32 0° 167° (SSE) 2,903 - -78.8°
